[[{"header":{"parameterUnit":"m.s-1","parameterCategory":1,"la1":30.2991,"la2":30.254,"lo1":-89.0895,"lo2":-89.0444,"dy":0.0017,"dx":0.0017,"nx":28,"ny":28,"refTime":"2024-10-20T09:00:00:Z","depth":0,"parameterNumber":2,"parameterNumberName":"U-component_of_WINDS"},"data":[0,0,0,0,0,0,0,0,0,0,0,0,0,0,0,0,0,0,0,0,0,0,0,0,0,0,0,0,0,0,0,0,0,0,0,0,0,0,0,0,0,0,0,0,0,0,0,0,0,0,0,0,0,0,0,0,0,0,-3.6469,-3.6469,0,-3.6497,-3.6498,-3.6498,-3.6417,-3.6415,-3.6412,-3.641,-3.6439,-3.6442,-3.6445,0,0,0,0,0,0,0,0,0,0,0,0,0,-3.6345,-3.6347,-3.6468,-3.6469,-3.6469,-3.6497,-3.6498,-3.6498,-3.6418,-3.6415,-3.6412,-3.6409,-3.6438,-3.6442,-3.6446,0,0,0,0,0,0,0,0,0,0,0,0,0,-3.6388,-3.6348,-3.6468,-3.6433,-3.643,-3.6497,-3.6498,-3.6498,-3.6418,-3.6415,-3.6411,-3.6407,-3.6437,-3.6442,-3.6446,-3.655,0,0,-3.646,-3.6463,0,0,0,0,0,0,0,0,-3.6386,-3.6393,-3.6437,-3.6435,-3.6432,-3.645,-3.6465,-3.6515,-3.6419,-3.6423,-3.641,-3.6406,-3.6446,-3.645,-3.6463,-3.6551,-3.6552,-3.6461,-3.6464,-3.6466,-3.6467,0,0,0,0,0,0,0,-3.6383,-3.6391,-3.648,-3.6438,-3.6435,-3.6415,-3.6417,-3.6474,-3.6455,-3.6422,-3.6416,-3.6421,-3.6444,-3.6459,-3.6463,-3.6553,-3.6461,-3.6465,-3.6468,-3.647,-3.6729,-3.6733,0,0,0,0,0,0,-3.6385,-3.6389,-3.6479,-3.6481,-3.6399,-3.642,-3.6423,-3.6448,-3.6454,-3.6451,-3.6424,-3.6417,-3.6453,-3.6458,-3.6464,-3.6587,-3.6466,-3.647,-3.6473,-3.6725,-3.673,-3.6734,0,0,0,0,0,0,-3.6382,-3.6393,-3.6478,-3.6433,-3.6443,-3.6427,-3.6455,-3.645,-3.6466,-3.6455,-3.6452,-3.6443,-3.645,-3.6457,-3.6529,-3.6587,-3.6472,-3.6476,-3.672,-3.6727,-3.6732,-3.6834,0,0,0,0,0,0,-3.6379,-3.6393,-3.6432,-3.6435,-3.6445,-3.6543,-3.6459,-3.6454,-3.6474,-3.6465,-3.6472,-3.647,-3.6448,-3.6523,-3.6534,-3.6592,-3.648,-3.6715,-3.6723,-3.673,-3.6826,-3.6843,-3.6858,0,0,0,0,0,-3.6375,-3.6459,-3.6434,-3.6446,-3.6494,-3.6546,-3.6552,-3.6525,-3.6479,-3.6518,-3.6512,-3.647,-3.6579,-3.6531,-3.6543,-3.6603,-3.6711,-3.6721,-3.673,-3.6818,-3.684,-3.6857,0,0,0,0,0,0,-3.6463,-3.6459,-3.6431,-3.6519,-3.6534,-3.6533,-3.6581,-3.6548,-3.6576,-3.6567,-3.6531,-3.6534,-3.6613,-3.6614,-3.6561,-3.6704,-3.6637,-3.6649,-3.67,-3.6721,-3.6736,-3.6735,-3.6484,0,0,0,0,0,-3.6493,-3.6536,-3.6529,-3.6607,-3.6616,-3.6598,-3.662,-3.6597,-3.6611,-3.6617,-3.6616,-3.6631,-3.6669,-3.6694,-3.6728,-3.6825,-3.6826,-3.6872,-3.6888,-3.6901,-3.6913,-3.6966,-3.6987,-3.6765,-3.6765,-3.6765,0,0,-3.6554,-3.6557,-3.6586,-3.6625,-3.6634,-3.668,-3.6604,-3.6655,-3.6689,-3.6625,-3.6693,-3.6693,-3.6708,-3.6793,-3.6831,-3.6797,-3.6974,-3.6913,-3.6924,-3.6928,-3.6978,-3.6999,-3.7017,-3.6771,-3.677,-3.6769,0,0,-3.669,-3.6696,-3.6763,-3.6774,-3.6788,-3.6775,-3.6792,-3.6796,-3.6794,-3.6862,-3.6815,-3.6855,-3.692,-3.6933,-3.6948,-3.7091,-3.7054,-3.7103,-3.7188,-3.724,-3.7258,-3.7273,-3.7326,-3.7345,-3.7114,-3.7114,-3.7114,0,-3.6765,-3.6833,-3.6801,-3.6857,-3.6876,-3.682,-3.6888,-3.6899,-3.6924,-3.6939,-3.6901,-3.6983,-3.6988,-3.7077,-3.7112,-3.7125,-3.7144,-3.7103,-3.7258,-3.7273,-3.7287,-3.7337,-3.7357,-3.712,-3.7119,-3.7119,-3.7118,0,-3.6925,-3.6973,-3.7024,-3.7051,-3.7076,-3.7137,-3.7115,-3.7144,-3.712,-3.7112,-3.7183,-3.7187,-3.7223,-3.7241,-3.7218,-3.7328,-3.7306,-3.7264,-3.7196,-3.7315,-3.7361,-3.738,-3.7129,-3.7126,-3.7125,-3.7123,0,0,-3.7118,-3.7127,-3.7147,-3.7159,-3.7172,-3.7208,-3.7267,-3.7301,-3.7328,-3.7347,-3.7397,-3.7453,-3.7414,-3.7432,-3.7409,-3.7455,-3.757,-3.7406,-3.7406,-3.7438,-3.7694,-3.7728,-3.775,-3.7545,-3.7548,-3.7551,-3.7693,0,-3.7254,-3.7356,-3.733,-3.7432,-3.7476,-3.7424,-3.7476,-3.7489,-3.7483,-3.752,-3.7513,-3.7555,-3.7499,-3.751,-3.7552,-3.7547,-3.7621,-3.7536,-3.7592,-3.7595,-3.7593,-3.7774,-3.781,-3.7944,-3.7711,-3.7714,-3.7716,0,-3.7427,-3.7454,-3.756,-3.7567,-3.7585,-3.7632,-3.7662,-3.7698,-3.7712,-3.7705,-3.7725,-3.7694,-3.7753,-3.7684,-3.7765,-3.7708,-3.7729,-3.773,-3.7735,-3.7741,-3.7664,-3.7787,-3.7986,-3.8007,-3.7744,-3.7742,-3.774,0,-3.756,-3.7623,-3.7695,-3.7707,-3.7716,-3.775,-3.7756,-3.7766,-3.779,-3.7816,-3.7831,-3.7864,-3.7882,-3.7909,-3.7887,-3.7838,-3.7974,-3.7902,-3.797,-3.7971,-3.8003,-3.8001,-3.821,-3.8013,-3.8013,-3.8012,-3.8012,0,-3.7716,-3.7784,-3.7755,-3.78,-3.7875,-3.7844,-3.7919,-3.7918,-3.7928,-3.7973,-3.7928,-3.7971,-3.7939,-3.7979,-3.7962,-3.8034,-3.8042,-3.8038,-3.8034,-3.8044,-3.8045,-3.8059,-3.805,-3.8017,-3.8016,-3.8015,-3.8014,0,-3.7878,-3.7862,-3.7938,-3.794,-3.7942,-3.7998,-3.8,-3.8042,-3.8032,-3.8089,-3.8101,-3.8086,-3.8131,-3.8112,-3.8159,-3.8148,-3.824,-3.8222,-3.8236,-3.8232,-3.8303,-3.8297,-3.8529,-3.8559,-3.8341,-3.8343,-3.8345,0,-3.798,-3.8031,-3.804,-3.8067,-3.8075,-3.8119,-3.8142,-3.8114,-3.814,-3.8162,-3.8202,-3.8243,-3.8274,-3.8348,-3.8342,-3.8378,-3.8362,-3.8441,-3.8367,-3.8377,-3.8366,-3.8365,-3.837,-3.8456,-3.8459,-3.8461,-3.8463,0,-3.8164,-3.8153,-3.8189,-3.8223,-3.8253,-3.8278,-3.8299,-3.8323,-3.8296,-3.8328,-3.8374,-3.8398,-3.8447,-3.8489,-3.8521,-3.8526,-3.8491,-3.8486,-3.8504,-3.8516,-3.8523,-3.8523,-3.8279,-3.8481,-3.8479,-3.8478,-3.8477,-3.8476,-3.83,-3.8344,-3.8358,-3.84,-3.8413,-3.8434,-3.8474,-3.847,-3.8508,-3.8546,-3.8526,-3.858,-3.8594,-3.8634,-3.8645,-3.8687,-3.8656,-3.8682,-3.8688,-3.8696,-3.8707,-3.8515,-3.8692,-3.8691,-3.8691,-3.869,-3.869,0,-3.8484,-3.849,-3.8529,-3.8561,-3.8594,-3.8557,-3.8579,-3.8609,-3.8658,-3.8674,-3.8706,-3.876,-3.88,-3.8798,-3.8836,-3.887,-3.8855,-3.8881,-3.8879,-3.8882,-3.8731,-3.8712,-3.8893,-3.8893,-3.8893,-3.8893,-3.8893,-3.8893,-3.8583,-3.8656,-3.8648,-3.8727,-3.8732,-3.8785,-3.8801,-3.8821,-3.8834,-3.8896,-3.893,-3.8928,-3.8937,-3.8976,-3.9012,-3.901,-3.9027,-3.906,-3.9053,-3.8912,-3.8892,-3.8873,-3.8856,-3.9063,-3.9064,-3.9201,-3.9202,-3.9203]},{"header":{"parameterUnit":"m.s-1","parameterCategory":1,"la1":30.2991,"la2":30.254,"lo1":-89.0895,"lo2":-89.0444,"dy":0.0017,"dx":0.0017,"nx":28,"ny":28,"refTime":"2024-10-20T09:00:00:Z","depth":0,"parameterNumber":3,"parameterNumberName":"V-component_of_WINDS"},"data":[0,0,0,0,0,0,0,0,0,0,0,0,0,0,0,0,0,0,0,0,0,0,0,0,0,0,0,0,0,0,0,0,0,0,0,0,0,0,0,0,0,0,0,0,0,0,0,0,0,0,0,0,0,0,0,0,0,0,-2.5285,-2.5285,0,-2.5291,-2.5291,-2.5291,-2.5243,-2.5241,-2.524,-2.5239,-2.5245,-2.5246,-2.5248,0,0,0,0,0,0,0,0,0,0,0,0,0,-2.5229,-2.523,-2.5285,-2.5285,-2.5285,-2.5291,-2.5291,-2.5291,-2.5243,-2.5241,-2.524,-2.5238,-2.5245,-2.5246,-2.5248,0,0,0,0,0,0,0,0,0,0,0,0,0,-2.5246,-2.5231,-2.5285,-2.5261,-2.5259,-2.5291,-2.5291,-2.5291,-2.5243,-2.5241,-2.5239,-2.5237,-2.5244,-2.5246,-2.5248,-2.5302,0,0,-2.5255,-2.5256,0,0,0,0,0,0,0,0,-2.5245,-2.5248,-2.5265,-2.5263,-2.5261,-2.5264,-2.5274,-2.5295,-2.5244,-2.5249,-2.5239,-2.5236,-2.5253,-2.5254,-2.526,-2.5303,-2.5303,-2.5255,-2.5256,-2.5257,-2.5258,0,0,0,0,0,0,0,-2.5244,-2.5248,-2.5287,-2.5265,-2.5263,-2.525,-2.525,-2.5278,-2.5263,-2.5249,-2.5245,-2.5247,-2.5251,-2.5258,-2.526,-2.5303,-2.5255,-2.5257,-2.5258,-2.5259,-2.5389,-2.5391,0,0,0,0,0,0,-2.5246,-2.5247,-2.5287,-2.5287,-2.5248,-2.5253,-2.5253,-2.5265,-2.5262,-2.526,-2.5248,-2.5244,-2.5255,-2.5257,-2.526,-2.5322,-2.5257,-2.5259,-2.526,-2.5387,-2.539,-2.5392,0,0,0,0,0,0,-2.5245,-2.525,-2.5287,-2.5266,-2.527,-2.5256,-2.527,-2.5266,-2.5273,-2.5262,-2.5259,-2.5258,-2.5254,-2.5257,-2.5292,-2.5322,-2.526,-2.5262,-2.5385,-2.5388,-2.5391,-2.5449,0,0,0,0,0,0,-2.5244,-2.525,-2.5271,-2.5267,-2.5271,-2.5319,-2.5272,-2.5268,-2.5277,-2.5271,-2.527,-2.5268,-2.5252,-2.5289,-2.5294,-2.5324,-2.5264,-2.5382,-2.5386,-2.539,-2.5444,-2.5454,-2.5462,0,0,0,0,0,-2.5242,-2.5287,-2.5272,-2.5277,-2.5297,-2.5321,-2.5323,-2.5305,-2.5279,-2.53,-2.5293,-2.5268,-2.5318,-2.5293,-2.5298,-2.5329,-2.538,-2.5385,-2.539,-2.544,-2.5452,-2.5462,0,0,0,0,0,0,-2.5295,-2.5286,-2.527,-2.5315,-2.5319,-2.5313,-2.5338,-2.5318,-2.5329,-2.5324,-2.53,-2.5301,-2.534,-2.5338,-2.531,-2.5381,-2.5344,-2.5351,-2.5381,-2.5392,-2.54,-2.54,-2.5266,0,0,0,0,0,-2.5312,-2.5333,-2.5324,-2.5364,-2.5367,-2.5353,-2.5362,-2.5348,-2.5351,-2.5353,-2.5348,-2.5352,-2.5368,-2.538,-2.5395,-2.5443,-2.5442,-2.5467,-2.5476,-2.5483,-2.5489,-2.5514,-2.5525,-2.5408,-2.5408,-2.5408,0,0,-2.5347,-2.5345,-2.536,-2.5375,-2.5377,-2.5398,-2.5354,-2.5379,-2.5395,-2.5356,-2.5389,-2.5386,-2.5389,-2.5431,-2.5449,-2.5431,-2.5521,-2.549,-2.5495,-2.5497,-2.552,-2.5531,-2.5541,-2.5412,-2.5411,-2.541,0,0,-2.5423,-2.5423,-2.5457,-2.5459,-2.5462,-2.5452,-2.546,-2.5456,-2.5453,-2.5485,-2.5457,-2.5474,-2.5504,-2.5507,-2.5512,-2.5587,-2.5565,-2.5593,-2.5639,-2.5664,-2.5673,-2.5681,-2.5708,-2.5718,-2.5598,-2.5599,-2.5599,0,-2.5466,-2.5498,-2.5477,-2.5503,-2.5511,-2.5476,-2.551,-2.5513,-2.5521,-2.5526,-2.5505,-2.5541,-2.554,-2.5582,-2.5601,-2.5606,-2.5614,-2.5593,-2.5673,-2.5681,-2.5688,-2.5714,-2.5724,-2.5602,-2.5602,-2.5601,-2.5601,0,-2.5551,-2.5573,-2.56,-2.5608,-2.5618,-2.5648,-2.5631,-2.5644,-2.5628,-2.562,-2.5653,-2.5651,-2.5665,-2.5673,-2.5658,-2.5713,-2.5702,-2.5677,-2.564,-2.5703,-2.5727,-2.5736,-2.5607,-2.5606,-2.5605,-2.5604,0,0,-2.5661,-2.5656,-2.5666,-2.5669,-2.5669,-2.5686,-2.5714,-2.5727,-2.5738,-2.5744,-2.5767,-2.5792,-2.5769,-2.5775,-2.576,-2.5781,-2.5841,-2.5754,-2.5754,-2.577,-2.5901,-2.5919,-2.5931,-2.5826,-2.5827,-2.5829,-2.5901,0,-2.5735,-2.5783,-2.5764,-2.5813,-2.5833,-2.58,-2.5824,-2.5827,-2.582,-2.5835,-2.5827,-2.5845,-2.5814,-2.5817,-2.5837,-2.5829,-2.5867,-2.5824,-2.5846,-2.5848,-2.5847,-2.5943,-2.5963,-2.6031,-2.591,-2.5911,-2.5912,0,-2.5827,-2.5836,-2.5888,-2.5883,-2.5891,-2.5913,-2.5923,-2.5938,-2.594,-2.5933,-2.594,-2.5919,-2.5946,-2.5909,-2.5945,-2.5916,-2.5924,-2.5922,-2.5924,-2.5925,-2.5884,-2.5948,-2.6052,-2.6063,-2.5926,-2.5925,-2.5924,0,-2.5902,-2.5927,-2.5961,-2.5965,-2.596,-2.5977,-2.5976,-2.5975,-2.5984,-2.5992,-2.5998,-2.6009,-2.6016,-2.6025,-2.6008,-2.5983,-2.6047,-2.6008,-2.6042,-2.6042,-2.6057,-2.6057,-2.6165,-2.6062,-2.6062,-2.6062,-2.6062,0,-2.5986,-2.6019,-2.5995,-2.6016,-2.6051,-2.6029,-2.6064,-2.6059,-2.6059,-2.6078,-2.605,-2.6069,-2.6045,-2.6061,-2.6048,-2.608,-2.6083,-2.6078,-2.6074,-2.6081,-2.6081,-2.6086,-2.6081,-2.6065,-2.6064,-2.6063,-2.6063,0,-2.6076,-2.6062,-2.6096,-2.6089,-2.6088,-2.6114,-2.6108,-2.6127,-2.6117,-2.6141,-2.6146,-2.6131,-2.6148,-2.6132,-2.6149,-2.614,-2.6182,-2.6172,-2.6182,-2.6179,-2.6214,-2.6211,-2.6329,-2.6343,-2.6231,-2.6232,-2.6233,0,-2.6131,-2.6155,-2.6151,-2.6161,-2.6162,-2.618,-2.6188,-2.6167,-2.6177,-2.618,-2.6198,-2.6213,-2.6224,-2.6253,-2.6244,-2.6256,-2.6245,-2.6286,-2.6247,-2.6253,-2.6246,-2.6245,-2.6247,-2.6294,-2.6295,-2.6296,-2.6297,0,-2.623,-2.6221,-2.6235,-2.6246,-2.6256,-2.6264,-2.6269,-2.6279,-2.6257,-2.627,-2.6287,-2.6296,-2.6312,-2.6327,-2.6336,-2.6335,-2.6313,-2.631,-2.6318,-2.6325,-2.633,-2.6328,-2.6204,-2.6307,-2.6306,-2.6305,-2.6305,-2.6304,-2.6304,-2.6324,-2.6323,-2.6339,-2.6341,-2.6346,-2.6363,-2.6355,-2.6369,-2.6381,-2.6367,-2.6389,-2.6389,-2.6399,-2.64,-2.6416,-2.6399,-2.6411,-2.6414,-2.6418,-2.6423,-2.6327,-2.6417,-2.6417,-2.6417,-2.6417,-2.6416,0,-2.6402,-2.6399,-2.6414,-2.6422,-2.6434,-2.6411,-2.6416,-2.6428,-2.6446,-2.6448,-2.6459,-2.6479,-2.6493,-2.6485,-2.6497,-2.6511,-2.6501,-2.6515,-2.6514,-2.6514,-2.6437,-2.6429,-2.6523,-2.6523,-2.6523,-2.6523,-2.6523,-2.6523,-2.6454,-2.6486,-2.6477,-2.6509,-2.6506,-2.6527,-2.6531,-2.6536,-2.6537,-2.656,-2.6572,-2.6566,-2.6563,-2.6575,-2.6587,-2.6584,-2.659,-2.6607,-2.6601,-2.653,-2.6519,-2.6509,-2.6501,-2.6609,-2.6609,-2.6676,-2.6677,-2.6677]}]]